Flag for Germany Weather past 2 weeks in Tönisvorst, North Rhine-Westphalia, Germany

Now
57 °F

Light rain. Partly cloudy.


Feels Like: 57 °F
Forecast: 55 / 68 °F
Wind: No wind

Location: Monchengladbach Airport

Current Time: Aug 27, 2015 at 9:53:51 PM

Latest Report: Aug 27, 2015 at 8:20 PM


Visibility: 4 mi

Pressure: 29.86 "Hg

Humidity: 100%

Dew point: 57 °F

Location of TönisvorstLocation

Historic Weather in Tönisvorst — Graph

°F

Tönisvorst temperature yesterday

Maximum temperature yesterday: 81 °F (at 3:20 PM)
Minimum temperature yesterday: 64 °F (at 7:50 AM)
Average temperature yesterday: 75 °F

Past Weeks' High & Low Weather Summary

 TemperatureHumidityPressure
High86 °F (Aug 13, 3:50 PM)100% (Aug 13, 7:20 AM)30.24 "Hg (Aug 13, 7:20 AM)
Low54 °F (Aug 19, 7:50 AM)34% (Aug 22, 2:20 PM)29.50 "Hg (Aug 24, 4:20 PM)
Average68 °F72%29.93 "Hg
* Reported Aug 12 8:20 PM — Aug 27 8:20 PM, Tönisvorst, Weather by CustomWeather, © 2015

Note: Actual official high and low records may vary slightly from our data, if they occured in-between our weather recording intervals... More about our weather records

Advertising

Tönisvorst weather history for previous 24 hours

 ConditionsComfort  
Time TempWeatherWind HumidityBarometerVisibility
8:20 PM
Thu, Aug 27
57 °FLight rain. Partly cloudy.No wind100%29.86 "Hg4 mi
7:50 PM57 °FLight rain. Fog.No wind100%29.86 "Hg3 mi
7:20 PM57 °FLight rain. Fog.1 mph100%29.86 "Hg3 mi
6:50 PM57 °FLight rain. Partly cloudy.2 mph100%29.86 "HgN/A
6:20 PM57 °FLight rain. Passing clouds.3 mph100%29.86 "Hg5 mi
5:50 PM57 °FLight rain. Fog.6 mph94%29.86 "Hg3 mi
5:20 PM57 °FLight rain. Fog.5 mph94%29.86 "Hg3 mi
4:50 PM57 °FRain. Passing clouds.5 mph100%29.86 "Hg3 mi
4:20 PM57 °FRain. Partly cloudy.3 mph94%29.86 "Hg3 mi
3:50 PM59 °FLight rain. Passing clouds.5 mph94%29.86 "Hg5 mi
3:20 PM59 °FLight rain. Partly cloudy.7 mph94%29.86 "Hg5 mi
2:50 PM59 °FLight rain. Passing clouds.6 mph94%29.86 "Hg5 mi
2:20 PM59 °FLight rain. Passing clouds.7 mph94%29.86 "HgN/A
1:50 PM61 °FLight rain. Partly cloudy.9 mph88%29.86 "Hg4 mi
1:20 PM63 °FLight rain. Passing clouds.9 mph88%29.86 "Hg4 mi
12:50 PM63 °FRain. Fog.5 mph94%29.86 "Hg3 mi
12:20 PM64 °FRain. Partly sunny.6 mph88%29.86 "Hg3 mi
11:20 AM64 °FBroken clouds.5 mph88%29.86 "HgN/A
10:50 AM66 °FBroken clouds.8 mph83%29.83 "HgN/A
10:20 AM64 °FLight rain. Broken clouds.5 mph88%29.86 "Hg5 mi
9:50 AM64 °FLight rain. Broken clouds.5 mph88%29.86 "Hg5 mi
9:20 AM64 °FLight rain. Broken clouds.6 mph88%29.83 "Hg5 mi
8:50 AM64 °FLight rain. Broken clouds.5 mph83%29.83 "Hg5 mi
8:20 AM64 °FScattered clouds.3 mph83%29.83 "HgN/A
7:50 AM66 °FLight rain. Broken clouds.5 mph88%29.83 "HgN/A
Weather by CustomWeather, © 2015

See weather overviewHow to use our weather pages